Weather in Borovlyanka

Russia / Kurgan Oblast     56°14′31″N   65°28′01″E
В апреле 2022 года жителям России запретили посещать сайт meteo.paraplan.net по решению Генеральной прокуратуры. Аудитория сайта уменьшилась в 10 раз. Владельцы сайта не видят смысла в поддержке погодного сервера в таких условиях. Сайт будет закрыт в октябре.
temp.,
°C
wind,
m/s
gust,
m/s
humid.,
%
clouds,
%
prec.,
mm/h
press.,
hPa
HPBL,
m
4 october, tue
tue423:00+8ssw5134885 0.0 1030352
02:00+8sw51345100 0.0 1030405
05:00+8sw41150100 0.0 1030323
08:00+8sw41058100 0.1 1031286
11:00+13wsw5951100 0.1 1031436
14:00+15wsw584879 0.0 1031585
17:00+14wsw410535 0.0 1032481
20:00+10wsw3116758 0.0 1033245
5 october, wed
wed523:00+8wsw3106644 0.0 1034183
02:00+7wsw395999 0.0 1034161
05:00+7sw39525 0.0 1034151
08:00+7sw3114355 0.0 1034272
11:00+12sw5103197 0.0 1033486
14:00+13sw4928100 0.0 1032681
17:00+11sw4936100 0.0 1032451
20:00+9ssw31042100 0.0 1031298
6 october, thu
thu623:00+7sw3847100 0.0 1030182
02:00+6sw3748100 0.0 1030132
05:00+7sw1246100 0.0 102819
08:00+7ssw3747100 0.0 1028141
11:00+12ssw41036100 0.0 1026463
14:00+12s4935100 0.0 1025430
17:00+11s41135100 0.0 1023379
20:00+9s31238100 0.0 1022288
7 october, fri
fri723:00+9s41235100 0.0 1021283
02:00+8ssw31039100 0.0 1019191
05:00+8ssw3842100 0.0 1018157
08:00+9ssw41250100 0.0 1017467
11:00+12sw4856100 0.0 1016645
14:00+11sw5862100 0.0 10151004
17:00+10ssw3773100 0.0 1014456
20:00+9sw2885100 0.4 1013359
8 october, sat
sat823:00+8ssw2388100 0.4 1012101
02:00+8wsw2389100 0.0 101169
05:00+8wnw2287100 0.0 100972
08:00+8w128295 0.9 100984
11:00+9w4560100 0.9 1009960
14:00+11w455394 0.0 10081470
17:00+7w3685100 0.3 1009977
20:00+7wnw2586100 0.2 1010535